Guam Agana, GU

5:18 AM ChST on October 15, 2019 (GMT +1000)
Guam International

Weather History for PGUM - August, 2019

Change the Weather History Date:

Saturday, August 24, 2019

  Actual Average Record
Temperature  
Mean Temperature 82 °F -  
Max Temperature 86 °F 84 °F 89 °F (1999)
Min Temperature 78 °F 75 °F 73 °F (1996)
Cooling Degree Days 17    
Growing Degree Days 32 (Base 50)    
Moisture  
Dew Point 77 °F    
Average Humidity 87    
Maximum Humidity 94    
Minimum Humidity 72    
Precipitation  
Precipitation 0.56 in - - ()
Sea Level Pressure  
Sea Level Pressure 29.78 in    
Wind  
Wind Speed 8 mph ()    
Max Wind Speed 18 mph    
Max Gust Speed 24 mph    
Visibility 9.2 miles    
Events Rain    
Averages and records for this station are not official NWS values.
T = Trace of Precipitation, MM = Missing Value Source: Averaged Metar Reports

Daily Weather History Graph

Daily Weather History Graph

Search for Another Location

Airport or City:

Astronomy

Aug. 24, 2019 Rise Set
Actual Time 6:08 AM ChST 6:37 PM ChST
Civil Twilight 5:47 AM ChST 6:59 PM ChST
Nautical Twilight 5:21 AM ChST 7:24 PM ChST
Astronomical Twilight 4:56 AM ChST 7:50 PM ChST
Moon No Moon Rise 12:51 PM ChST (8/24)
Length of Visible Light 13h 12m
Length of Day
12h 28m
Last Quarter, 45% of the Moon is Illuminated
Aug 24
Last Quarter
Aug 30
New
Sep 6
First Quarter
Sep 14
Full
Sep 22
Last Quarter

Hourly Weather History & Observations

Time (ChST) Temp. Heat Index Dew Point Humidity Pressure Visibility Wind Dir Wind Speed Gust Speed Precip Events Conditions
12:54 AM 79.0 °F - 75.0 °F 88% 29.81 in 10.0 mi East 10.4 mph - 0.13 in   Clear
1:54 AM 80.1 °F 85.1 °F 75.0 °F 85% 29.78 in 10.0 mi ENE 9.2 mph - N/A   Partly Cloudy
2:54 AM 79.0 °F - 75.9 °F 90% 29.76 in 10.0 mi North 6.9 mph - N/A   Clear
3:54 AM 78.1 °F - 75.0 °F 90% 29.76 in 10.0 mi ENE 9.2 mph - N/A   Scattered Clouds
4:54 AM 79.0 °F - 75.9 °F 90% 29.78 in 10.0 mi NE 5.8 mph - 0.05 in   Partly Cloudy
5:54 AM 78.1 °F - 75.9 °F 93% 29.79 in 6.0 mi North 10.4 mph - 0.00 in   Overcast
6:14 AM 78.1 °F - 75.0 °F 90% 29.82 in 10.0 mi North 9.2 mph - 0.05 in   Mostly Cloudy
6:54 AM 78.1 °F - 75.9 °F 93% 29.81 in 9.0 mi North 5.8 mph - 0.05 in Rain Light Rain
7:54 AM 82.9 °F 92.8 °F 78.1 °F 85% 29.81 in 10.0 mi NE 8.1 mph - 0.03 in   Partly Cloudy
8:54 AM 84.0 °F 93.7 °F 77.0 °F 79% 29.80 in 10.0 mi ENE 13.8 mph - 0.00 in   Partly Cloudy
9:54 AM 86.0 °F 96.0 °F 75.9 °F 72% 29.80 in 10.0 mi East 17.3 mph 24.2 mph N/A   Clear
10:54 AM 84.9 °F 96.6 °F 78.1 °F 80% 29.81 in 10.0 mi East 18.4 mph 24.2 mph 0.02 in   Scattered Clouds
11:54 AM 84.9 °F 94.1 °F 75.9 °F 74% 29.79 in 10.0 mi East 13.8 mph - 0.00 in Rain Light Rain
12:54 PM 82.0 °F 89.4 °F 75.9 °F 82% 29.78 in 7.0 mi SSE 13.8 mph 20.7 mph 0.00 in Rain Light Rain
1:07 PM 78.1 °F - 75.0 °F 90% 29.80 in 0.8 mi South 9.2 mph 20.7 mph 0.16 in Rain Heavy Rain
1:17 PM 79.0 °F - 75.9 °F 90% 29.79 in 5.0 mi SSE 8.1 mph - 0.26 in Rain Light Rain
1:25 PM 79.0 °F - 77.0 °F 94% 29.79 in 5.0 mi SE 6.9 mph - 0.27 in Rain Light Rain
1:54 PM 82.0 °F 91.0 °F 78.1 °F 88% 29.76 in 10.0 mi ESE 8.1 mph - 0.28 in   Mostly Cloudy
1:59 PM 82.0 °F 90.2 °F 77.0 °F 85% 29.78 in 10.0 mi ESE 8.1 mph - N/A   Mostly Cloudy
2:08 PM 82.0 °F 91.0 °F 78.1 °F 88% 29.77 in 9.0 mi SSE 6.9 mph - N/A   Mostly Cloudy
2:23 PM 81.0 °F 88.6 °F 78.1 °F 91% 29.77 in 10.0 mi ESE 5.8 mph - 0.00 in Rain Light Rain
2:45 PM 82.0 °F 90.2 °F 77.0 °F 85% 29.77 in 10.0 mi East 8.1 mph - 0.00 in Rain Light Rain
2:54 PM 81.0 °F 87.9 °F 77.0 °F 88% 29.74 in 10.0 mi ESE 8.1 mph - 0.00 in Rain Light Rain
3:17 PM 81.0 °F 87.9 °F 77.0 °F 88% 29.76 in 8.0 mi ESE 4.6 mph - 0.00 in   Mostly Cloudy
3:30 PM 81.0 °F 87.9 °F 77.0 °F 88% 29.76 in 10.0 mi ESE 5.8 mph - 0.00 in   Mostly Cloudy
3:54 PM 81.0 °F 88.6 °F 78.1 °F 91% 29.74 in 10.0 mi East 8.1 mph - 0.00 in   Partly Cloudy
4:54 PM 81.0 °F 87.9 °F 77.0 °F 88% 29.74 in 10.0 mi East 6.9 mph - N/A   Clear
5:54 PM 82.0 °F 91.0 °F 78.1 °F 88% 29.75 in 10.0 mi ENE 6.9 mph - N/A   Scattered Clouds
6:54 PM 81.0 °F 87.9 °F 77.0 °F 88% 29.78 in 10.0 mi East 6.9 mph - N/A   Mostly Cloudy
7:06 PM 81.0 °F 87.9 °F 77.0 °F 88% 29.80 in 10.0 mi East 6.9 mph - N/A   Partly Cloudy
7:54 PM 81.0 °F 87.3 °F 75.9 °F 85% 29.79 in 10.0 mi East 5.8 mph - N/A   Clear
8:54 PM 81.0 °F 87.9 °F 77.0 °F 88% 29.80 in 10.0 mi East 8.1 mph - N/A   Clear
9:54 PM 82.0 °F 90.2 °F 77.0 °F 85% 29.81 in 10.0 mi East 9.2 mph - N/A   Partly Cloudy
10:54 PM 82.0 °F 90.2 °F 77.0 °F 85% 29.80 in 10.0 mi ESE 8.1 mph - N/A   Scattered Clouds
11:38 PM 82.0 °F 90.2 °F 77.0 °F 85% 29.81 in 10.0 mi ESE 11.5 mph - N/A   Mostly Cloudy
11:54 PM 82.0 °F 89.4 °F 75.9 °F 82% 29.79 in 10.0 mi ESE 10.4 mph - N/A   Mostly Cloudy